Tracking 23762 objects as of 19-Oct-2021
HD Live streaming from Space Station
objects crossing your sky now

FALCON 9 DEB

Track FALCON 9 DEB now!
10-day predictions


NORAD ID: 44296
Int'l Code: 2019-029BP
Perigee: 426.7 km
Apogee: 436.1 km
Inclination: 53.0 °
Period: 93.1 minutes
Semi major axis: 6802 km
RCS: Unknown
Launch date: May 24, 2019
Source: United States (US)
Launch site: AIR FORCE EASTERN TEST RANGE (AFETR)

Note: This is SATELLITE DEBRIS
aabbcc
Your satellite tracking list
Your tracking list is empty




NASA's NSSDC Master Catalog

Two Line Element Set (TLE):
1 44296U 19029BP  21292.57262472  .00006827  00000-0  13931-3 0  9990
2 44296  52.9995 306.8427 0006887 204.3800 155.6882 15.47435753137125
Source of the keplerian elements: AFSPC